Renton, WA
on Saturday, December 1, 2012

Saturday
Previous Day Next Day
Daily Summary
 ActualAverage (KSEA)Record (KSEA)
Temperature
Mean Temperature °F 42°F  
Max Temperature 57°F 47°F 57°F (1958)
Min Temperature 50°F 37°F 20°F (1985)
Degree Days
Heating Degree Days 12 23  
Month to date heating degree days 23  
Since 1 July heating degree days 1206  
Cooling Degree Days 0 0  
Month to date cooling degree days 0  
Year to date cooling degree days 189  
Growing Degree Days4 (Base °F )  
Moisture
Dew Point 41°F   
Average Humidity 65    
Maximum Humidity 86    
Minimum Humidity 47    
Precipitation
Precipitation 0.08 in 0.20 in 1.52 in (1979)
Month to date precipitation 0.20  
Year to date precipitation 32.34  
Snow
Snow 0.00 in in 1.10 in (2007)
Month to date snowfall  
Since 1 July snowfall  
Snow Depth in   
Wind
Wind Speed 7 mph   
Max Wind Speed 17 mph   
Max Gust Speed 26 mph   
Visibility 10 miles   
Events Rain   

Key: T is trace of precipitation, MM is missing value
Source: NWS Daily Summary
Time(PST)TemperatureDew PointHumidity Pressure Visibility Wind DirectionWind SpeedGust SpeedPrecipitationEvents Conditions
12:53 AM 51.1°F 46.9°F 86% 29.40 in 10.0 miles SSE 3.5 mph - 0.02 in Rain Light Rain
1:53 AM 51.1°F 46.9°F 86% 29.40 in 10.0 miles Calm Calm - 0.02 in Rain Light Rain
2:53 AM 51.1°F 46.9°F 86% 29.41 in 7.0 miles Calm Calm - 0.03 in Rain Light Rain
3:53 AM 51.8°F 46.4°F 82% 29.43 in 10.0 miles Variable 6.9 mph - N/A Rain Light Rain
4:53 AM 51.8°F 44.6°F 76% 29.48 in 10.0 miles SSE 13.8 mph 19.6 mph N/A   Overcast
5:53 AM 51.1°F 43.0°F 74% 29.56 in 10.0 miles SSE 9.2 mph 19.6 mph N/A   Overcast
6:53 AM 50.0°F 43.0°F 77% 29.61 in 9.0 miles SSE 9.2 mph - 0.00 in Rain Light Rain
7:53 AM 50.0°F 42.1°F 74% 29.64 in 10.0 miles South 5.8 mph - 0.00 in   Overcast
8:53 AM 50.0°F 39.2°F 66% 29.63 in 10.0 miles SE 9.2 mph - N/A   Overcast
9:53 AM 50.0°F 41.0°F 71% 29.65 in 10.0 miles SE 5.8 mph - N/A   Overcast
10:53 AM 54.0°F 39.9°F 59% 29.64 in 10.0 miles SE 11.5 mph 20.7 mph 0.00 in   Overcast
11:53 AM 55.9°F 37.9°F 51% 29.62 in 10.0 miles SSE 15.0 mph 26.5 mph 0.00 in   Overcast
12:53 PM 57.0°F 37.9°F 49% 29.61 in 10.0 miles SSE 15.0 mph 25.3 mph N/A   Scattered Clouds
1:53 PM 57.9°F 37.9°F 47% 29.59 in 10.0 miles SSE 17.3 mph 26.5 mph N/A   Overcast
2:53 PM 57.0°F 37.9°F 49% 29.59 in 10.0 miles SSE 12.7 mph 19.6 mph 0.00 in   Overcast
3:53 PM 55.9°F 39.0°F 53% 29.59 in 10.0 miles SSE 6.9 mph - 0.00 in   Overcast
4:53 PM 55.0°F 37.0°F 51% 29.57 in 10.0 miles SSE 8.1 mph - N/A   Overcast
5:53 PM 54.0°F 37.0°F 53% 29.55 in 10.0 miles SE 5.8 mph - N/A   Partly Cloudy
6:53 PM 54.0°F 37.0°F 53% 29.52 in 10.0 miles SE 3.5 mph - N/A   Clear
7:53 PM 53.1°F 36.0°F 52% 29.49 in 10.0 miles Calm Calm - N/A   Overcast
8:53 PM 53.1°F 39.9°F 61% 29.46 in 10.0 miles Calm Calm - 0.00 in Rain Light Rain
9:53 PM 51.1°F 41.0°F 68% 29.44 in 10.0 miles East 9.2 mph - 0.01 in   Overcast
10:53 PM 50.0°F 41.0°F 71% 29.36 in 10.0 miles East 10.4 mph - 0.00 in Rain Light Rain
11:53 PM 51.1°F 39.9°F 66% 29.29 in 10.0 miles ESE 9.2 mph 16.1 mph 0.00 in Rain Light Rain
Moon Phase
Dec. 01 Dec. 06 Dec. 13 Dec. 20 Dec. 28
Sunrise:07:36 AM (PST) Moon Rise:07:18 PM (PST)12/1
Sunset:04:19 PM (PST) Moon Set:09:49 AM (PST)12/1

Copyright © 2014 The Weather Underground, Inc.